Lexington Weather

Lexington, Massachusetts, USA

75°F
9/22/2021 1:22pm 
  • Lexington Conditions: Overcast
  • Temperature: 75.4°F / 24.1°CColder 0.2°F than last hour.
  • Dew Point: 68.7°FDecreased 0.6°Fsince last hour.
  • Relative Humidity: 80%Decreased 1.0% since last hour.
  • Wind: Wind from W W 2 mph, 10-min avg: 3 mph, gust: 11 mph
  • Barometer: 30.10 inFalling 0.02  inHg/hr Falling Slowly
  • Visibility: 10 miles
  • Rain Today: 0.00 in
  •   

Regional Weather Roundup
for Boston / Norton, MA

        
000
ASUS41 KBOX 181104
RWRBOX

REGIONAL WEATHER ROUNDUP
NATIONAL WEATHER SERVICE BOSTON/NORTON MA
700 AM EDT SAT SEP 18 2021

NOTE:  "FAIR" INDICATES FEW OR NO CLOUDS BELOW 12,000 FEET WITH NO 
SIGNIFICANT WEATHER AND/OR OBSTRUCTIONS TO VISIBILITY.

MAZALL-181200-
EASTERN MASSACHUSETTS
  
CITY           SKY/WX    TMP DP  RH WIND       PRES   REMARKS
BOSTON         CLOUDY    66  63  90 NE5       30.08F FOG              
BEVERLY        FOG       63  63 100 N6        30.08F VSB 1/2          
LAWRENCE       CLOUDY    63  63 100 N6        30.12R FOG              
BEDFORD        FOG       63  63 100 NW5       30.09R VSB 3/4          
BLUE HILL      NOT AVBL                                               
NORWOOD        CLOUDY    65  63  93 CALM      30.08S                  
MARSHFIELD     FOG       64  64 100 VRB7G13   30.08R VSB<1/4          
PLYMOUTH       FOG       64  64 100 N8        30.07S VSB 1            
TAUNTON        FOG       64  64 100 VRB3      30.07S VSB 1            
NEW BEDFORD    CLOUDY    66  65  96 N7        30.06R FOG              
$$

MAZALL-181200-
CAPE COD AND THE ISLANDS
  
CITY           SKY/WX    TMP DP  RH WIND       PRES   REMARKS
FALMOUTH       FOG       66  66 100 NE12G20   30.05S VSB 1/4          
HYANNIS        FOG       68  68 100 N10       30.04S VSB 1/2          
CHATHAM        CLOUDY    67  66  97 VRB5      30.06S FOG              
PROVINCETOWN   LGT RAIN  65  65 100 NE10      30.07S VSB 1/4          
NANTUCKET      CLOUDY    69  66  90 N14       30.03S                  
MARTHAS VNYRD  CLOUDY    68  68 100 NE9       30.04S FOG              
$$
 
MAZALL-181200-
CENTRAL AND WESTERN MASSACHUSETTS
  
CITY           SKY/WX    TMP DP  RH WIND       PRES   REMARKS
WORCESTER      FOG       62  61  96 CALM      30.11F VSB 1/4          
FITCHBURG      CLOUDY    62  61  96 N6        30.12S FOG              
ORANGE         CLOUDY    63  62  97 NE3       30.13R FOG              
SPRINGFIELD    CLOUDY    64  64 100 NE5       30.09S FOG              
WESTFIELD      CLOUDY    66  66 100 NE3       30.10S                  
NORTH ADAMS    CLOUDY    66  63  90 W3        30.12R                  
PITTSFIELD     CLOUDY    64  63  96 CALM      30.12R                  
$$
 
RIZALL-181200-
RHODE ISLAND
  
CITY           SKY/WX    TMP DP  RH WIND       PRES   REMARKS
PROVIDENCE     CLOUDY    65  64  97 N8        30.08S                  
NEWPORT        FOG       64  64 100 N9        30.06S VSB 1/2          
BLOCK ISLAND   CLOUDY    64  63  96 N14       30.06S                  
SMITHFIELD     LGT RAIN  63  63 100 NE6       30.09S VSB 1/4          
WESTERLY       CLOUDY    63  63 100 N8        30.06S FOG              
$$
 
CTZALL-181200-
CONNECTICUT
  
CITY           SKY/WX    TMP DP  RH WIND       PRES   REMARKS
BRADLEY INTL   CLOUDY    65  65 100 N6        30.10S VSB 1            
HARTFORD       CLOUDY    66  63  90 N6        30.09S FOG              
BRIDGEPORT     PTCLDY    67  63  87 N6        30.08S                  
DANBURY        CLOUDY    67  64  90 NW7       30.12R                  
GROTON         CLOUDY    65  63  93 N13       30.06R                  
NEW HAVEN      PTCLDY    68  65  90 N9        30.07F                  
CHESTER        FOG       64  64 100 N9        30.09S VSB 3/4          
MERIDEN        CLOUDY    67  62  84 N5        30.08F                  
WILLIMANTIC    CLOUDY    63  63 100 N5        30.10R FOG              
OXFORD         CLOUDY    64  63  96 N8        30.12R                  
$$

MEZ002-015-021-024-NHZ003-005-008-011-012-014-VTZ005-008-181200-
NORTHERN NEW ENGLAND
  
CITY           SKY/WX    TMP DP  RH WIND       PRES   REMARKS
PORTLAND ME    FOG       62  62 100 CALM      30.11S VSB 3/4          
BANGOR ME        N/A     63  63 100 W3        30.11S FOG              
CONCORD NH     CLOUDY    63  62  97 NW5       30.12R                  
MANCHESTER NH  FOG       64  62  93 NW6       30.10R VSB 1/2          
NASHUA NH      FOG       63  63 100 NW6       30.12R VSB 1            
PORTSMOUTH NH  FOG       63  63  99 NW6       30.11S VSB 3/8          
JAFFREY NH     FOG       62  62 100 CALM      30.14R VSB 1/4          
KEENE NH       CLOUDY    63  63 100 CALM      30.12S FOG              
BURLINGTON VT  PTCLDY    67  64  90 SW5       30.07R                  
MT. WASHINGTON FOG       50  50 100 NW22G33     N/A  VSB 1/16         
$$

NYZ052-076-181200-
EASTERN NEW YORK
  
CITY           SKY/WX    TMP DP  RH WIND       PRES   REMARKS
ALBANY         CLOUDY    62  62 100 CALM      30.11R                  
NEW YORK CITY  PTCLDY    70  65  84 N8        30.08R                  
$$
 
ANZALL-181200-
MARINE OBSERVATIONS
  
STATION/POSITION TIME  TEMP    WIND        PRES    VSBY  WAVE
                       AIR SEA DIR/SP/G                  HT/PER
                 (UTC) (F)     (DEG/KT/KT) (MB)    (MI)  (FT/S)
BOSTON BUOY      1040      67  360/ 12/ 14 1019.0S
BUZZARDS BAY     1000          360/ 18/ 19 1018.3S
NANTUCKET SOUND  1040   70 72   30/ 14/ 17 1017.2R
MASS BAY-STELLWA 1004   64      20/ 12/ 16 1018.2F  1 7/8  2/ 3
ISLE OF SHOALS   1000   63      10/  8/  8 1018.8R
S OF BLOCK IS    1026      70                N/A           7/ 9
$$

......................KEY.........................
  SKY/WX - SKY CONDITION/PRESENT WEATHER
  TMP    - TEMPERATURE IN FAHRENHEIT
  DWPT   - DEWPOINT IN FAHRENHEIT
  RH     - RELATIVE HUMIDITY IN PERCENT
  WIND   - DIRECTION AND SPEED IN MPH
  PRES   - MEAN SEA LEVEL PRESSURE IN INCHES OF HG
  WCI    - WIND CHILL INDEX
  VSB    - VISIBILITY IN MILES
  HX     - HEAT INDEX
  TC     - TEMPERATURE IN CELSIUS
  VRB    - VARIABLE WIND DIRECTION
  N/A    - NOT AVAILABLE
  
      

Other recent Regional Weather Roundups

Wed Sep 22, 1:04pm

Wed Sep 22, 12:05pm

Wed Sep 22, 11:04am

Wed Sep 22, 10:04am

Wed Sep 22, 9:04am

Wed Sep 22, 8:04am

Wed Sep 22, 7:04am

Wed Sep 22, 6:04am

Wed Sep 22, 5:04am

Wed Sep 22, 4:04am

Wed Sep 22, 3:04am

Wed Sep 22, 2:04am

Wed Sep 22, 1:04am

Wed Sep 22, 12:04am

Tue Sep 21, 11:04pm

Tue Sep 21, 10:04pm

Tue Sep 21, 9:04pm

Tue Sep 21, 8:04pm

Tue Sep 21, 7:04pm

Tue Sep 21, 6:04pm

Tue Sep 21, 5:04pm

Tue Sep 21, 4:04pm

Tue Sep 21, 3:04pm

Tue Sep 21, 2:04pm

Tue Sep 21, 1:04pm

Tue Sep 21, 12:04pm

Tue Sep 21, 11:04am

Tue Sep 21, 10:04am

Tue Sep 21, 9:04am

Tue Sep 21, 8:04am

Tue Sep 21, 7:04am

Tue Sep 21, 6:04am

Tue Sep 21, 5:04am

Tue Sep 21, 4:04am

Tue Sep 21, 3:04am

Tue Sep 21, 2:04am

Tue Sep 21, 1:04am

Tue Sep 21, 12:04am

Mon Sep 20, 11:04pm

Mon Sep 20, 10:04pm

Mon Sep 20, 9:04pm

Mon Sep 20, 8:04pm

Mon Sep 20, 7:04pm

Mon Sep 20, 6:04pm

Mon Sep 20, 5:04pm

Mon Sep 20, 4:04pm

Mon Sep 20, 3:04pm

Mon Sep 20, 2:04pm

Mon Sep 20, 1:04pm

Mon Sep 20, 12:04pm

Mon Sep 20, 11:04am

Mon Sep 20, 10:04am

Mon Sep 20, 9:04am

Mon Sep 20, 7:04am

Mon Sep 20, 6:04am

Mon Sep 20, 5:04am

Mon Sep 20, 4:04am

Mon Sep 20, 3:04am

Mon Sep 20, 2:04am

Mon Sep 20, 1:04am

Mon Sep 20, 12:04am

Sun Sep 19, 11:04pm

Sun Sep 19, 10:04pm

Sun Sep 19, 9:04pm

Sun Sep 19, 8:04pm

Sun Sep 19, 7:04pm

Sun Sep 19, 6:04pm

Sun Sep 19, 5:04pm

Sun Sep 19, 4:04pm

Sun Sep 19, 3:04pm

Sun Sep 19, 2:05pm

Sun Sep 19, 1:04pm

Sun Sep 19, 12:04pm

Sun Sep 19, 11:04am

Sun Sep 19, 10:05am

Sun Sep 19, 9:04am

Sun Sep 19, 8:04am

Sun Sep 19, 7:04am

Sun Sep 19, 6:04am

Sun Sep 19, 5:04am

Sun Sep 19, 4:04am

Sun Sep 19, 3:04am

Sun Sep 19, 2:04am

Sun Sep 19, 1:04am

Sun Sep 19, 12:04am

Sat Sep 18, 11:05pm

Sat Sep 18, 10:04pm

Sat Sep 18, 9:04pm

Sat Sep 18, 8:04pm

Sat Sep 18, 7:04pm

Sat Sep 18, 6:04pm

Sat Sep 18, 5:04pm

Sat Sep 18, 4:04pm

Sat Sep 18, 3:04pm

Sat Sep 18, 2:04pm

Sat Sep 18, 1:04pm

Sat Sep 18, 12:04pm

Sat Sep 18, 11:04am

Sat Sep 18, 10:04am

Sat Sep 18, 9:04am

Sat Sep 18, 8:04am

Sat Sep 18, 6:04am

Sat Sep 18, 5:04am

Sat Sep 18, 4:04am

Sat Sep 18, 3:04am

Sat Sep 18, 2:04am

Sat Sep 18, 1:04am

Sat Sep 18, 12:04am

Fri Sep 17, 11:04pm

Fri Sep 17, 10:04pm

Fri Sep 17, 9:04pm

Fri Sep 17, 8:04pm

Fri Sep 17, 7:04pm

Fri Sep 17, 6:04pm

Fri Sep 17, 5:04pm

Fri Sep 17, 4:04pm

Fri Sep 17, 3:04pm

Fri Sep 17, 2:04pm

Fri Sep 17, 1:04pm

Fri Sep 17, 12:05pm

Fri Sep 17, 11:04am

Fri Sep 17, 10:04am

Fri Sep 17, 9:04am

Fri Sep 17, 8:04am

Fri Sep 17, 7:04am

Fri Sep 17, 6:04am

Fri Sep 17, 5:04am

Fri Sep 17, 4:04am

Fri Sep 17, 3:04am

Fri Sep 17, 2:04am

Fri Sep 17, 1:04am

Fri Sep 17, 12:04am

Thu Sep 16, 11:04pm

Thu Sep 16, 10:04pm

Thu Sep 16, 9:04pm

Thu Sep 16, 8:04pm

Thu Sep 16, 7:04pm

Thu Sep 16, 6:04pm

Thu Sep 16, 5:04pm

Thu Sep 16, 4:04pm

Thu Sep 16, 3:04pm

Thu Sep 16, 2:04pm

Thu Sep 16, 1:05pm

Thu Sep 16, 12:04pm

Thu Sep 16, 11:05am

Thu Sep 16, 10:05am

Thu Sep 16, 9:04am

Thu Sep 16, 8:04am

Thu Sep 16, 7:04am

Thu Sep 16, 6:04am

Thu Sep 16, 5:04am

Thu Sep 16, 4:04am

Thu Sep 16, 3:04am

Thu Sep 16, 2:04am

Thu Sep 16, 1:04am

Thu Sep 16, 12:04am

Wed Sep 15, 11:04pm

Wed Sep 15, 10:04pm

Wed Sep 15, 9:04pm

Wed Sep 15, 8:04pm

Wed Sep 15, 7:04pm

Wed Sep 15, 6:04pm

Wed Sep 15, 5:05pm

Wed Sep 15, 4:04pm

Wed Sep 15, 3:04pm

Wed Sep 15, 2:04pm

Wed Sep 15, 1:04pm

Meta data:

ID: 93bf499c-5c8e-4ff8-9353-58e1e37aab2c
Link: https://api.weather.gov/products/93bf499c-5c8e-4ff8-9353-58e1e37aab2c